Latest Weather Observations for Kingaroy

IDQ60801

Issued at 11:32 am EST Thursday 7 May 2015 (issued every 30 minutes, with the page automatically refreshed every 10 minutes)

About weather observations | Map of weather stations | Latest weather observations for QLD | Other Formats
Station Details ID: 040922 Name: KINGAROY AIRPORT Lat: -26.57 Lon: 151.84 Height: 433.67 m
Data from the previous 72 hours. | See also: Recent months at Kingaroy
Date/Time
EST
Temp
°C
App
Temp
°C
Dew
Point
Rel
Hum
%
Delta-T
°C
Wind Press
QNH
hPa
Press
MSL
hPa
Rain
since 9 am
mm
Dir
 
Spd
km/h
Gust
km/h
Spd
kts
Gust
kts
07/11:30am 21.9 17.1 4.9 33 8.6 S 19 28 10 15 1018.1 1017.4 0.0
07/11:00am 21.0 15.9 4.1 33 8.3 SSW 20 32 11 17 1018.8 1018.1 0.0
07/10:30am 20.3 14.6 4.8 36 7.7 SSW 24 32 13 17 1018.9 1018.2 0.0
07/10:00am 19.3 15.1 5.7 41 6.8 SSW 17 22 9 12 1019.1 1018.4 0.0
07/09:30am 17.9 12.3 5.5 44 6.2 SSW 24 30 13 16 1019.2 1018.5 0.0
07/09:00am 16.6 11.9 5.9 49 5.3 S 20 28 11 15 1019.1 1018.4 0.0
07/08:30am 14.8 11.7 7.1 60 3.9 S 13 22 7 12 1019.0 1018.3 0.0
07/08:00am 10.2 8.9 6.0 75 2.0 SW 2 6 1 3 1018.9 1018.2 0.0
07/07:30am 8.3 7.1 6.6 89 0.8 E 2 6 1 3 1018.5 1017.8 0.0
07/07:00am 4.9 3.6 4.0 94 0.4 CALM 0 0 0 0 1018.1 1017.4 0.0
07/06:30am 5.1 3.8 4.2 94 0.4 CALM 0 0 0 0 1017.9 1017.2 0.0
07/06:00am 5.2 3.5 4.0 92 0.5 NW 2 6 1 3 1017.7 1017.0 0.0
07/05:30am 5.9 3.4 4.5 91 0.6 NW 7 9 4 5 1017.6 1016.9 0.0
07/05:00am 5.9 4.2 3.9 87 0.9 NW 2 9 1 5 1017.5 1016.8 0.0
07/04:30am 8.4 5.9 3.5 71 2.2 SE 6 7 3 4 1017.4 1016.7 0.0
07/04:00am 8.3 4.9 3.8 73 2.0 S 11 11 6 6 1017.3 1016.6 0.0
07/03:30am 8.8 5.1 4.2 73 2.1 S 13 15 7 8 1017.3 1016.6 0.0
07/03:00am 9.8 6.1 4.2 68 2.5 SSE 13 15 7 8 1017.3 1016.6 0.0
07/02:30am 10.7 5.9 4.6 66 2.8 S 19 22 10 12 1017.3 1016.6 0.0
07/02:00am 11.1 6.7 5.0 66 2.8 S 17 24 9 13 1017.6 1016.9 0.0
07/01:30am 11.1 6.7 5.0 66 2.8 S 17 20 9 11 1017.8 1017.1 0.0
07/01:00am 13.1 8.3 5.8 61 3.5 S 20 24 11 13 1018.0 1017.3 0.0
07/12:30am 12.2 7.7 6.0 66 3.0 S 19 20 10 11 1018.0 1017.3 0.0
07/12:00am 14.0 9.3 6.1 59 3.9 S 20 24 11 13 1018.1 1017.4 0.0
 
Date/Time
EST
Temp
°C
App
Temp
°C
Dew
Point
Rel
Hum
%
Delta-T
°C
Wind Press
QNH
hPa
Press
MSL
hPa
Rain
since 9 am
mm
Dir
 
Spd
km/h
Gust
km/h
Spd
kts
Gust
kts
06/11:30pm 13.0 8.4 6.6 65 3.1 S 20 22 11 12 1018.3 1017.6 0.0
06/11:00pm 14.9 10.7 7.5 61 3.7 SSE 19 20 10 11 1018.4 1017.7 0.0
06/10:30pm 13.5 9.5 8.4 71 2.6 S 19 20 10 11 1018.3 1017.6 0.0
06/10:00pm 16.2 12.7 8.7 61 3.9 SSE 17 19 9 10 1018.3 1017.6 0.0
06/09:30pm 14.9 11.6 9.7 71 2.8 S 17 17 9 9 1018.3 1017.6 0.0
06/09:00pm 15.1 11.5 9.9 71 2.8 S 19 20 10 11 1018.2 1017.5 0.0
06/08:30pm 16.3 14.0 10.6 69 3.1 S 13 15 7 8 1018.0 1017.3 0.0
06/08:00pm 13.5 11.7 9.4 76 2.1 SSE 9 13 5 7 1017.8 1017.1 0.0
06/07:30pm 14.9 12.9 8.8 67 3.2 S 9 11 5 6 1017.5 1016.8 0.0
06/07:00pm 17.6 15.3 9.0 57 4.6 SSE 11 13 6 7 1017.1 1016.4 0.0
06/06:30pm 17.9 15.7 9.3 57 4.6 S 11 11 6 6 1016.7 1016.0 0.0
06/06:00pm 19.4 17.2 9.3 52 5.4 SSE 11 11 6 6 1016.4 1015.6 0.0
06/05:30pm 20.9 19.0 9.2 47 6.4 S 9 11 5 6 1015.8 1015.1 0.0
06/05:00pm 23.1 20.9 9.5 42 7.5 S 11 13 6 7 1015.5 1014.8 0.0
06/04:30pm 25.5 22.5 7.6 32 9.7 SSW 13 20 7 11 1015.2 1014.5 0.0
06/04:00pm 26.5 21.9 6.5 28 10.7 SSW 20 26 11 14 1015.0 1014.3 0.0
06/03:30pm 27.2 23.7 7.1 28 10.9 SSW 15 22 8 12 1015.0 1014.3 0.0
06/03:00pm 27.7 23.9 7.5 28 11.0 SW 17 22 9 12 1014.9 1014.2 0.0
06/02:30pm 27.8 24.3 8.6 30 10.7 SW 17 24 9 13 1014.8 1014.1 0.0
06/02:00pm 27.8 25.3 9.6 32 10.3 SW 13 20 7 11 1014.9 1014.2 0.0
06/01:30pm 27.8 25.6 10.9 35 9.8 S 13 22 7 12 1014.9 1014.2 0.0
06/01:00pm 27.9 26.0 10.6 34 10.0 S 11 19 6 10 1015.1 1014.4 0.0
06/12:30pm 27.2 23.9 9.5 33 10.0 SSE 17 20 9 11 1015.3 1014.6 0.0
06/12:00pm 26.9 25.9 12.2 40 8.6 W 9 17 5 9 1015.7 1015.0 0.0
06/11:30am 25.8 23.8 11.6 41 8.2 SW 13 19 7 10 1016.1 1015.4 0.0
06/11:00am 25.9 23.9 11.6 40 8.3 S 13 19 7 10 1016.7 1016.0 0.0
06/10:30am 24.6 24.6 14.1 52 6.3 WSW 7 11 4 6 1016.9 1016.2 0.0
06/10:00am 23.2 23.4 14.7 58 5.1 WNW 7 11 4 6 1017.1 1016.4 0.0
06/09:30am 21.8 21.9 14.4 63 4.4 NW 7 11 4 6 1017.1 1016.4 0.0
06/09:00am 19.5 20.6 14.7 74 2.8 WNW 2 6 1 3 1017.1 1016.4 0.2
06/08:30am 17.7 19.0 14.0 79 2.2 CALM 0 0 0 0 1016.9 1016.2 0.2
06/08:00am 15.0 16.2 13.7 92 0.7 CALM 0 0 0 0 1016.8 1016.1 0.2
06/07:30am 12.2 12.8 11.9 98 0.2 CALM 0 0 0 0 1016.5 1015.7 0.2
06/07:00am 9.8 9.7 9.5 98 0.2 CALM 0 0 0 0 1016.4 1015.6 0.2
06/06:30am 9.5 9.3 9.0 97 0.3 CALM 0 0 0 0 1016.1 1015.4 0.2
06/06:00am 9.2 7.7 8.6 96 0.3 S 6 9 3 5 1015.7 1015.0 0.2
06/05:30am 9.7 9.5 9.2 97 0.3 CALM 0 0 0 0 1015.3 1014.6 0.2
06/05:00am 9.8 9.7 9.3 97 0.3 CALM 0 0 0 0 1015.0 1014.3 0.2
06/04:30am 9.8 9.6 9.2 96 0.3 CALM 0 0 0 0 1014.7 1014.0 0.2
06/04:00am 10.3 10.3 9.7 96 0.3 CALM 0 0 0 0 1014.6 1013.9 0.2
06/03:30am 10.2 10.1 9.4 95 0.4 CALM 0 0 0 0 1014.6 1013.9 0.2
06/03:00am 10.7 10.8 10.1 96 0.3 CALM 0 0 0 0 1014.4 1013.6 0.2
06/02:30am 10.7 10.7 9.9 95 0.4 CALM 0 4 0 2 1014.3 1013.5 0.2
06/02:00am 10.4 10.3 9.3 93 0.6 CALM 0 7 0 4 1014.5 1013.7 0.2
06/01:30am 11.0 11.1 10.2 95 0.4 CALM 0 0 0 0 1014.6 1013.9 0.2
06/01:00am 11.3 11.4 10.2 93 0.6 CALM 0 0 0 0 1015.0 1014.3 0.2
06/12:30am 11.6 11.8 10.7 94 0.5 CALM 0 0 0 0 1015.1 1014.4 0.2
06/12:00am 12.0 12.3 10.9 93 0.6 CALM 0 0 0 0 1015.3 1014.6 0.2
 
Date/Time
EST
Temp
°C
App
Temp
°C
Dew
Point
Rel
Hum
%
Delta-T
°C
Wind Press
QNH
hPa
Press
MSL
hPa
Rain
since 9 am
mm
Dir
 
Spd
km/h
Gust
km/h
Spd
kts
Gust
kts
05/11:30pm 12.6 13.1 11.5 93 0.6 CALM 0 0 0 0 1015.2 1014.5 0.2
05/11:00pm 12.8 13.3 11.7 93 0.6 CALM 0 0 0 0 1015.2 1014.5 0.2
05/10:30pm 12.7 13.1 11.3 91 0.8 CALM 0 0 0 0 1015.2 1014.5 0.2
05/10:00pm 13.5 14.2 12.1 91 0.8 CALM 0 0 0 0 1015.0 1014.3 0.2
05/09:30pm 13.8 13.2 12.4 91 0.8 S 7 9 4 5 1014.9 1014.2 0.2
05/09:00pm 13.9 14.0 11.4 85 1.4 S 2 9 1 5 1014.9 1014.2 0.2
05/08:30pm 15.0 15.8 12.5 85 1.4 CALM 0 0 0 0 1014.7 1014.0 0.2
05/08:00pm 15.6 15.7 12.7 83 1.6 SSE 4 6 2 3 1014.4 1013.6 0.2
05/07:30pm 15.5 15.2 12.8 84 1.5 E 6 7 3 4 1014.1 1013.3 0.2
05/07:00pm 15.9 15.7 13.0 83 1.6 ESE 6 7 3 4 1013.7 1013.0 0.2
05/06:30pm 16.9 16.5 12.4 75 2.5 SE 6 7 3 4 1013.4 1012.7 0.2
05/06:00pm 19.0 18.5 12.0 64 4.0 WSW 6 6 3 3 1013.0 1012.3 0.2
05/05:30pm 22.1 21.2 11.5 51 6.0 WSW 7 11 4 6 1012.6 1011.9 0.2
05/05:00pm 23.9 22.5 10.9 44 7.4 WSW 9 11 5 6 1012.6 1011.9 0.2
05/04:30pm 25.0 22.7 10.5 40 8.2 W 13 19 7 10 1012.4 1011.6 0.2
05/04:00pm 25.6 22.9 10.2 38 8.7 WSW 15 22 8 12 1012.2 1011.4 0.2
05/03:30pm 26.3 23.4 10.9 38 8.8 W 17 22 9 12 1012.2 1011.4 0.2
05/03:00pm 26.4 23.6 10.1 36 9.3 WSW 15 24 8 13 1012.1 1011.3 0.2
05/02:30pm 26.6 23.2 9.0 33 9.8 W 17 28 9 15 1012.1 1011.3 0.2
05/02:00pm 26.4 24.3 11.3 39 8.7 WNW 13 20 7 11 1012.3 1011.5 0.2
05/01:30pm 26.2 24.9 13.7 46 7.5 W 13 24 7 13 1012.5 1011.7 0.2
05/01:00pm 25.9 25.8 15.0 51 6.7 WSW 9 17 5 9 1013.1 1012.4 0.2
05/12:30pm 25.4 25.0 14.2 50 6.8 WNW 9 19 5 10 1013.5 1012.8 0.2
05/12:00pm 24.2 23.8 15.1 56 5.6 WNW 11 19 6 10 1014.2 1013.4 0.2
05/11:30am 24.8 25.1 16.0 58 5.5 NNE 9 17 5 9 1014.8 1014.1 0.2
05/11:00am 23.5 24.0 15.5 60 4.9 NW 7 11 4 6 1015.3 1014.6 0.0
05/10:30am 22.7 22.9 15.8 65 4.2 NW 9 15 5 8 1015.7 1015.0 0.0
05/10:00am 21.7 22.1 16.4 72 3.3 NW 9 13 5 7 1016.0 1015.3 0.0
05/09:30am 19.9 19.8 16.0 78 2.4 NW 11 15 6 8 1016.2 1015.5 0.0
05/09:00am 18.7 20.3 15.9 84 1.7 NW 2 9 1 5 1016.4 1015.6 0.0
05/08:30am 16.9 18.7 15.4 91 0.9 CALM 0 0 0 0 1016.2 1015.5 0.0
05/08:00am 14.8 16.2 14.3 97 0.3 CALM 0 0 0 0 1016.0 1015.3 0.0
05/07:30am 12.4 13.1 12.2 99 0.1 CALM 0 0 0 0 1015.8 1015.1 0.0
05/07:00am 11.1 11.4 10.8 98 0.2 CALM 0 0 0 0 1015.5 1014.8 0.0
05/06:30am 10.8 11.0 10.5 98 0.2 CALM 0 0 0 0 1015.3 1014.6 0.0
05/06:00am 10.8 11.0 10.5 98 0.2 CALM 0 0 0 0 1015.3 1014.6 0.0
05/05:30am 10.7 10.8 10.2 97 0.3 CALM 0 0 0 0 1014.8 1014.1 0.0
05/05:00am 11.1 11.4 10.8 98 0.2 CALM 0 0 0 0 1014.7 1014.0 0.0
05/04:30am 11.5 11.9 11.2 98 0.2 CALM 0 0 0 0 1014.7 1014.0 0.0
05/04:00am 11.3 11.6 11.0 98 0.2 CALM 0 0 0 0 1014.7 1014.0 0.0
05/03:30am 11.4 11.7 10.9 97 0.3 CALM 0 0 0 0 1014.6 1013.9 0.0
05/03:00am 11.7 12.1 11.2 97 0.3 CALM 0 0 0 0 1014.8 1014.1 0.0
05/02:30am 11.7 12.1 11.1 96 0.3 CALM 0 0 0 0 1015.0 1014.3 0.0
05/02:00am 12.1 12.6 11.6 97 0.3 CALM 0 0 0 0 1015.0 1014.3 0.0
05/01:30am 12.4 13.0 11.8 96 0.3 CALM 0 0 0 0 1015.2 1014.5 0.0
05/01:00am 12.6 12.1 12.0 96 0.3 S 6 7 3 4 1015.5 1014.8 0.0
05/12:30am 12.6 13.1 11.5 93 0.6 CALM 0 0 0 0 1015.5 1014.8 0.0
05/12:00am 13.7 14.6 12.9 95 0.4 CALM 0 0 0 0 1015.8 1015.1 0.0
 
Date/Time
EST
Temp
°C
App
Temp
°C
Dew
Point
Rel
Hum
%
Delta-T
°C
Wind Press
QNH
hPa
Press
MSL
hPa
Rain
since 9 am
mm
Dir
 
Spd
km/h
Gust
km/h
Spd
kts
Gust
kts
04/11:30pm 13.9 14.8 13.0 94 0.5 CALM 0 0 0 0 1015.8 1015.1 0.0
04/11:00pm 14.2 15.2 13.1 93 0.6 CALM 0 0 0 0 1016.0 1015.3 0.0
04/10:30pm 14.4 14.1 13.3 93 0.6 S 7 9 4 5 1016.2 1015.5 0.0
04/10:00pm 15.1 15.6 14.0 93 0.6 ESE 4 9 2 5 1016.2 1015.5 0.0
04/09:30pm 15.2 16.0 13.7 91 0.9 E 2 9 1 5 1016.2 1015.5 0.0
04/09:00pm 15.9 16.1 14.1 89 1.0 S 6 7 3 4 1015.8 1015.1 0.0
04/08:30pm 16.4 17.8 14.4 88 1.2 CALM 0 0 0 0 1015.7 1015.0 0.0
04/08:00pm 16.5 18.0 14.7 89 1.1 CALM 0 0 0 0 1015.5 1014.8 0.0
04/07:30pm 16.4 17.7 14.1 86 1.3 CALM 0 0 0 0 1015.2 1014.5 0.0
04/07:00pm 17.6 19.0 14.5 82 1.8 CALM 0 0 0 0 1014.9 1014.2 0.0
04/06:30pm 19.2 19.7 15.1 77 2.5 SE 6 9 3 5 1014.6 1013.9 0.0
04/06:00pm 19.9 20.3 15.3 75 2.8 SSE 7 9 4 5 1014.4 1013.6 0.0
04/05:30pm 20.5 21.1 15.7 74 2.9 S 7 9 4 5 1014.0 1013.2 0.0
04/05:00pm 22.3 22.2 14.9 63 4.5 SSW 9 11 5 6 1013.5 1012.8 0.0
04/04:30pm 24.2 22.8 14.6 55 5.8 SSW 15 19 8 10 1013.2 1012.5 0.0
04/04:00pm 25.2 23.8 14.6 51 6.4 SSE 15 17 8 9 1013.0 1012.3 0.0
04/03:30pm 24.5 23.8 14.3 53 6.1 S 11 15 6 8 1012.9 1012.2 0.0
04/03:00pm 24.4 22.9 14.2 53 6.1 S 15 19 8 10 1012.9 1012.2 0.0
04/02:30pm 25.8 26.1 14.9 51 6.7 WSW 7 9 4 5 1012.9 1012.2 0.0
04/02:00pm 25.2 24.1 14.3 50 6.6 SSE 13 19 7 10 1013.0 1012.3 0.0
04/01:30pm 24.2 24.9 14.6 55 5.8 SSW 4 11 2 6 1013.3 1012.6 0.0
04/01:00pm 24.9 24.3 14.7 53 6.2 SW 11 15 6 8 1013.5 1012.8 0.0
04/12:30pm 24.5 24.3 14.6 54 6.0 S 9 17 5 9 1014.1 1013.3 0.0
04/12:00pm 24.4 24.4 15.1 56 5.7 S 9 15 5 8 1014.6 1013.9 0.0

Other Formats:

Comma delimited format used in spreadsheet applications
http://www.bom.gov.au/fwo/IDQ60801/IDQ60801.94549.axf

JavaScript Object Notation format (JSON) in row-major order
http://www.bom.gov.au/fwo/IDQ60801/IDQ60801.94549.json